Overview Statistics Trail Chart Weather Telemetry Raw packets
 

This is the latest recevied weather packets stored in our database for station/object KW6V-15. If no packets are shown the sender has not sent any weather packets the latest 10 day(s).

<< 10 11 12 13 14 15 16 >>
Time Temp. Humidity Pressure Rain* Wind** Luminosity Snow
1788094863 10° C 92% 1014 hPa 0 mm - - -
1788093069 8.89° C 91% 1014.1 hPa 0 mm - - -
1788091312 7.78° C 91% 1014.3 hPa 0 mm - - -
1788089453 7.22° C 90% 1014.5 hPa 0 mm - - -
1788087663 8.33° C 90% 1014.4 hPa 0 mm - - -
1788085862 9.44° C 90% 1014.4 hPa 0 mm - - -
1788084087 10° C 90% 1014.5 hPa 0 mm - - -
1788082363 10.56° C 90% 1014.5 hPa 0 mm - - -
1788080453 11.11° C 89% 1014.7 hPa 0 mm - - -
1788078663 10.56° C 89% 1014.9 hPa 0 mm - - -
1788076839 10.56° C 88% 1015 hPa 0 mm - - -
1788075079 11.11° C 87% 1015 hPa 0 mm - - -
1788073278 11.67° C 87% 1015.1 hPa 0 mm - - -
1788071497 11.67° C 86% 1015.2 hPa 0 mm - - -
1788069709 12.22° C 85% 1015.2 hPa 0 mm - - -
1788067896 12.78° C 84% 1015.3 hPa 0 mm - - -
1788066048 13.33° C 83% 1015.3 hPa 0 mm - - -
1788064255 13.33° C 82% 1015.4 hPa 0 mm - - -
1788062455 13.33° C 82% 1015.1 hPa 0 mm - - -
1788060644 13.89° C 82% 1014.7 hPa 0 mm - - -
1788058863 14.44° C 81% 1014.7 hPa 0 mm - - -
1788055254 16.11° C 79% 1015.2 hPa 0 mm - - -
1788053442 16.67° C 76% 1015.2 hPa 0 mm - - -
1788051644 17.22° C 74% 1015.2 hPa 0 mm - - -
1788049871 18.33° C 71% 1015.3 hPa 0 mm - - -

* Rain latest hour (hover to see other rain measurements)
** Current wind speed in m/s (hover to see current wind gust speed)